Temp
3 3 3 3 2 2 2 2 2 1 1 1 1 1 0 -0 0 0 0 0 1 1 1 1 1 1 1 1 1 1 1 1 1 1 1 0 -0 -1
2 2 2 2 2 2 2 2 1 1 1 1 1 1 1 -0 -0 -0 0 -0 0 0 1 0 0 1 1 1 1 1 1 1 2 1 1 0 -1 -1
2 2 2 2 2 1 1 1 1 1 0 1 0 0 0 0 -0 -1 -1 -0 0 0 0 0 1 1 1 1 1 1 1 1 1 1 1 0 -1 -2
1 2 2 1 1 1 1 1 0 0 0 0 -0 -0 -1 -0 -0 -1 -1 -0 0 0 0 0 0 1 1 1 0 1 0 0 1 1 1 0 -0 -2
1 1 1 1 1 1 1 0 0 0 -0 -0 -1 -1 -1 -1 -1 -0 -0 -0 -0 -0 -0 -0 -0 0 -0 0 0 -0 0 0 0 0 -0 -1 -2 -2
1 1 1 1 1 0 -0 0 -0 -0 -0 -1 -1 -1 -1 -2 -1 -1 -1 -1 -1 -0 -1 -1 -1 -0 -0 -0 -0 -0 -0 -0 -0 -0 -1 -0 -2 -2
0 0 0 0 -0 -1 -1 -1 -1 -1 -1 -1 -2 -2 -1 -2 -1 -1 -1 -1 -1 -1 -1 -1 -1 -1 -1 -0 -0 -0 -0 -1 -1 -1 -1 -1 -1 -1
0 0 0 -0 -1 -1 -1 -2 -2 -2 -2 -2 -2 -2 -2 -2 -2 -1 -1 -1 -1 -1 -1 -1 -1 -1 -1 -1 -1 -1 -1 -1 -1 -1 -1 -1 -1 -1
-0 -0 -1 -2 -2 -2 -2 -2 -2 -2 -3 -2 -2 -2 -2 -2 -2 -2 -2 -2 -1 -2 -2 -2 -2 -1 -1 -1 -1 -1 -1 -1 -1 -2 -2 -2 -2 -2
-1 -2 -2 -3 -3 -3 -3 -3 -2 -3 -3 -2 -2 -2 -2 -2 -2 -2 -2 -2 -2 -2 -2 -2 -2 -2 -2 -2 -2 -2 -2 -2 -2 -2 -2 -2 -2 -2
-2 -3 -3 -3 -4 -3 -3 -3 -3 -3 -3 -3 -3 -3 -3 -3 -3 -3 -3 -3 -3 -3 -3 -3 -3 -3 -3 -3 -3 -3 -3 -3 -3 -3 -3 -3 -3 -3
-3 -4 -4 -4 -4 -4 -4 -4 -4 -3 -3 -3 -3 -3 -3 -3 -3 -3 -3 -3 -3 -3 -3 -3 -3 -3 -3 -3 -3 -3 -3 -3 -3 -4 -4 -4 -4 -4
-4 -4 -4 -4 -4 -5 -5 -4 -4 -4 -4 -3 -4 -4 -4 -4 -4 -4 -4 -4 -4 -4 -4 -4 -4 -4 -4 -4 -4 -4 -4 -4 -4 -5 -5 -5 -5 -5
-5 -5 -5 -4 -5 -5 -4 -4 -4 -4 -4 -4 -4 -4 -4 -4 -4 -4 -4 -4 -4 -5 -5 -4 -4 -4 -4 -4 -4 -4 -4 -5 -5 -6 -6 -6 -6 -6
-5 -5 -5 -5 -5 -5 -5 -5 -5 -5 -4 -5 -5 -5 -5 -5 -5 -5 -5 -5 -5 -5 -5 -6 -5 -5 -5 -5 -5 -5 -5 -5 -6 -6 -7 -7 -7 -7
-5 -5 -5 -5 -5 -5 -5 -5 -5 -5 -5 -5 -5 -5 -6 -6 -6 -6 -6 -6 -6 -6 -6 -6 -6 -5 -6 -6 -6 -6 -6 -6 -7 -7 -7 -7 -7 -8
-5 -5 -5 -5 -5 -5 -5 -5 -5 -5 -5 -5 -6 -6 -6 -6 -6 -7 -7 -7 -7 -6 -7 -6 -6 -6 -6 -7 -7 -7 -7 -7 -7 -8 -8 -8 -8 -8
-5 -5 -6 -6 -6 -6 -6 -6 -6 -6 -6 -6 -6 -7 -7 -8 -8 -8 -8 -7 -7 -7 -7 -7 -7 -7 -7 -7 -8 -8 -8 -8 -8 -8 -8 -9 -9 -9
-5 -6 -6 -6 -6 -6 -6 -6 -6 -6 -6 -6 -7 -7 -7 -8 -8 -8 -8 -8 -7 -7 -7 -7 -7 -7 -7 -8 -8 -8 -9 -9 -9 -9 -9 -9 -10 -10
-7 -6 -7 -7 -7 -6 -6 -6 -7 -6 -6 -7 -7 -8 -8 -9 -8 -8 -8 -8 -8 -8 -8 -8 -8 -8 -9 -9 -9 -10 -10 -10 -10 -10 -10 -10 -10 -11
-7 -7 -8 -9 -8 -8 -7 -7 -8 -9 -7 -8 -8 -8 -8 -8 -8 -8 -8 -8 -8 -8 -8 -8 -8 -9 -9 -9 -10 -10 -10 -10 -10 -11 -11 -11 -11 -11
-7 -7 -7 -7 -7 -8 -8 -8 -8 -8 -8 -8 -8 -8 -8 -8 -8 -8 -8 -8 -9 -9 -9 -9 -10 -10 -10 -10 -10 -11 -11 -11 -11 -11 -11 -11 -12 -11
-7 -7 -7 -7 -7 -8 -8 -8 -8 -8 -8 -8 -8 -8 -8 -9 -9 -9 -9 -9 -9 -10 -10 -10 -10 -10 -11 -11 -11 -11 -12 -12 -12 -12 -12 -12 -12 -12
Height
3108 3105 3103 3101 3098 3097 3095 3094 3092 3089 3088 3087 3086 3086 3085 3084 3084 3083 3083 3082 3082 3081 3080 3080 3081 3081 3081 3081 3081 3081 3082 3082 3083 3084 3085 3087 3089 3091
3099 3097 3095 3094 3091 3089 3088 3086 3085 3083 3080 3080 3079 3079 3078 3078 3078 3078 3078 3078 3078 3076 3076 3077 3076 3076 3078 3078 3079 3079 3079 3079 3080 3080 3081 3082 3084 3087
3092 3089 3087 3084 3082 3080 3079 3078 3076 3075 3073 3072 3073 3072 3072 3072 3073 3073 3073 3073 3074 3073 3074 3074 3074 3074 3074 3074 3075 3076 3076 3076 3076 3076 3077 3078 3080 3081
3083 3081 3078 3075 3073 3071 3070 3069 3068 3067 3066 3066 3066 3066 3066 3067 3067 3068 3068 3069 3069 3070 3069 3070 3070 3071 3070 3070 3070 3071 3072 3072 3073 3073 3074 3075 3075 3077
3074 3072 3070 3067 3065 3063 3062 3061 3060 3060 3059 3059 3060 3060 3061 3061 3063 3063 3064 3064 3065 3065 3066 3064 3065 3066 3065 3065 3065 3066 3067 3067 3068 3069 3070 3071 3073 3075
3067 3065 3062 3059 3057 3055 3054 3053 3053 3053 3053 3053 3054 3056 3056 3057 3058 3059 3059 3060 3060 3061 3061 3060 3060 3061 3061 3060 3061 3061 3062 3063 3063 3064 3065 3067 3068 3070
3060 3057 3054 3051 3049 3047 3046 3046 3045 3045 3046 3048 3049 3050 3051 3053 3055 3055 3054 3055 3055 3055 3056 3055 3056 3056 3056 3056 3056 3056 3057 3059 3059 3059 3060 3062 3063 3064
3052 3049 3046 3044 3043 3042 3041 3042 3042 3042 3041 3044 3045 3047 3048 3049 3050 3050 3050 3051 3051 3051 3051 3051 3051 3051 3052 3052 3051 3052 3053 3054 3054 3055 3055 3056 3058 3059
3044 3042 3040 3038 3037 3037 3037 3037 3040 3040 3041 3042 3042 3044 3044 3046 3046 3046 3046 3045 3045 3045 3045 3046 3046 3046 3047 3047 3047 3047 3048 3049 3050 3050 3051 3052 3052 3053
3036 3035 3034 3033 3033 3033 3034 3035 3037 3039 3039 3039 3038 3040 3041 3041 3041 3042 3041 3041 3040 3039 3040 3040 3040 3041 3042 3042 3042 3042 3043 3043 3044 3044 3045 3045 3046 3047
3030 3029 3028 3029 3030 3030 3032 3033 3034 3035 3037 3037 3036 3037 3037 3038 3037 3037 3036 3035 3035 3034 3034 3035 3035 3035 3036 3036 3036 3037 3037 3037 3038 3038 3038 3039 3039 3038
3025 3024 3025 3025 3026 3028 3029 3030 3032 3033 3034 3034 3033 3033 3033 3033 3034 3033 3032 3031 3030 3030 3029 3030 3030 3030 3030 3030 3030 3030 3030 3030 3031 3031 3031 3031 3031 3030
3020 3020 3021 3023 3024 3025 3026 3027 3028 3029 3029 3029 3029 3030 3030 3030 3029 3028 3027 3026 3025 3025 3024 3024 3024 3024 3024 3024 3023 3023 3023 3023 3023 3023 3023 3022 3022 3021
3015 3016 3017 3019 3021 3022 3022 3023 3023 3024 3025 3025 3025 3026 3026 3025 3024 3023 3022 3021 3021 3020 3019 3019 3019 3018 3018 3017 3017 3016 3016 3016 3015 3015 3014 3014 3013 3012
3010 3012 3013 3014 3016 3017 3018 3018 3019 3019 3020 3020 3020 3020 3020 3019 3018 3018 3017 3016 3016 3014 3013 3013 3012 3012 3011 3010 3010 3008 3008 3008 3007 3006 3006 3005 3004 3004
3005 3007 3008 3010 3011 3012 3012 3013 3014 3014 3014 3014 3013 3013 3012 3012 3012 3011 3010 3009 3008 3008 3007 3007 3006 3005 3005 3004 3004 3000 2999 2998 2997 2997 2998 2996 2996 2995
2999 3002 3004 3004 3005 3006 3007 3007 3008 3008 3007 3007 3007 3006 3006 3005 3004 3003 3001 3001 3000 3000 3000 3000 2998 2997 2997 2996 2997 2994 2992 2990 2988 2988 2988 2988 2986 2985
2994 2996 2998 2999 2999 2999 3000 3000 3001 3001 3000 3001 3001 3000 2999 2997 2995 2994 2993 2993 2992 2991 2991 2991 2990 2989 2989 2989 2988 2987 2984 2982 2979 2979 2979 2980 2980 2975
2988 2990 2991 2991 2992 2992 2992 2993 2993 2993 2993 2994 2993 2991 2990 2988 2987 2986 2984 2984 2983 2982 2982 2981 2980 2979 2979 2980 2979 2979 2976 2972 2971 2970 2968 2968 2971 2970
2982 2983 2983 2983 2983 2984 2984 2984 2985 2985 2985 2985 2984 2983 2981 2979 2978 2977 2975 2975 2974 2973 2973 2971 2969 2968 2968 2969 2970 2970 2966 2964 2962 2961 2959 2957 2958 2960
2971 2972 2974 2974 2975 2975 2975 2975 2976 2975 2975 2975 2974 2972 2970 2970 2969 2967 2966 2965 2964 2963 2963 2961 2958 2958 2958 2958 2960 2960 2958 2954 2951 2950 2950 2948 2948 2949
2964 2965 2965 2966 2966 2966 2966 2965 2965 2965 2965 2964 2963 2962 2961 2960 2959 2958 2957 2956 2955 2954 2953 2951 2949 2947 2948 2948 2949 2949 2948 2946 2942 2939 2939 2938 2937 2938
2957 2958 2958 2958 2959 2959 2958 2958 2957 2957 2956 2955 2954 2953 2952 2951 2950 2948 2947 2946 2945 2943 2942 2942 2940 2939 2939 2938 2939 2939 2938 2937 2934 2931 2930 2925 2925 2926
Wind_Speed
35 33 33 34 34 34 34 33 33 33 34 33 30 27 28 25 23 22 20 18 17 16 14 12 10 10 11 10 10 10 10 8 7 9 11 13 15 17
34 34 33 34 34 34 33 33 32 33 34 32 29 28 26 23 20 22 18 16 13 10 10 11 11 10 10 9 9 10 9 8 9 10 11 12 16 19
37 37 34 34 33 33 33 33 32 32 32 32 29 27 24 22 21 20 17 14 12 10 9 10 9 10 11 11 11 12 12 11 11 12 11 12 19 21
36 36 35 34 33 33 32 32 31 30 30 30 27 25 22 20 19 18 15 14 13 12 12 12 13 15 15 14 14 15 14 12 11 12 13 15 22 19
33 34 34 33 33 33 31 30 30 29 27 27 25 23 20 18 15 13 14 15 15 15 16 15 16 17 16 16 15 15 15 13 12 13 15 17 20 24
32 32 32 31 31 30 29 27 26 25 24 23 20 19 18 16 15 15 15 16 16 17 17 17 16 16 16 15 15 14 15 14 14 13 14 16 19 23
31 31 31 30 29 27 26 25 22 20 18 18 18 16 15 14 16 16 15 16 17 17 18 16 16 16 16 15 14 13 14 15 14 14 14 17 19 21
30 30 28 28 26 24 20 21 19 18 14 14 12 13 14 15 16 16 16 16 15 16 16 16 16 16 16 15 14 13 13 13 13 14 14 15 17 19
30 29 26 23 21 18 15 11 12 10 9 11 11 13 14 14 14 15 15 16 17 17 17 16 16 16 16 15 15 14 14 14 14 15 15 16 18 20
27 24 22 18 16 13 11 9 9 9 10 12 11 13 14 14 14 16 17 18 18 18 17 16 16 16 16 17 16 16 16 16 17 17 18 19 20 21
23 19 16 14 12 11 10 8 8 11 15 14 12 12 13 15 16 17 17 17 17 17 17 17 17 17 18 18 19 18 18 18 18 19 21 21 22 23
20 17 14 13 11 9 8 9 12 16 17 14 13 14 14 16 17 16 16 16 16 17 17 17 18 18 19 19 20 20 19 20 21 21 22 23 23 24
18 15 12 12 13 10 13 17 16 14 15 16 15 15 16 17 18 18 17 17 17 17 17 17 18 19 20 20 20 21 20 21 22 23 24 24 24 24
17 16 15 15 17 17 19 18 17 16 15 17 18 18 18 20 20 20 19 18 17 17 17 18 19 20 20 21 21 23 23 24 25 25 25 25 25 25
19 20 20 19 21 21 21 19 19 18 19 20 20 20 20 20 21 21 21 22 25 24 19 20 21 20 21 23 24 26 27 26 27 27 25 26 26 27
21 22 22 21 21 21 21 21 21 20 20 21 21 22 22 22 23 26 33 29 28 24 19 21 21 22 22 24 24 28 30 29 30 28 27 28 28 27
21 21 22 22 23 23 23 23 23 23 23 23 23 24 25 29 35 36 28 28 27 23 22 23 23 24 24 25 25 28 30 30 31 30 29 28 29 29
21 21 23 24 25 26 25 25 25 25 25 23 25 30 32 32 30 29 31 30 29 27 26 26 26 27 27 27 27 28 30 31 32 32 31 28 25 30
21 21 23 26 27 28 27 27 27 28 29 30 30 32 33 34 33 30 30 29 29 30 30 29 29 30 29 27 29 27 29 32 33 33 33 32 25 26
24 25 31 31 30 30 30 29 28 29 30 30 33 34 36 37 35 32 31 30 30 31 32 33 33 33 31 30 27 26 29 33 34 33 34 35 31 27
27 30 28 31 34 36 36 36 38 33 34 39 38 35 34 33 32 34 32 31 31 32 33 34 36 34 32 31 27 26 28 32 34 34 34 34 32 28
21 21 22 23 25 27 27 27 29 31 30 30 31 32 31 30 32 33 32 33 33 34 33 32 33 35 32 30 28 28 26 29 34 35 35 35 34 30
20 20 20 22 23 24 25 26 28 29 31 33 34 35 35 33 34 34 33 33 33 33 32 31 32 32 30 30 30 28 28 29 32 34 33 37 36 33
Wind_Direction
291 292 291 290 288 287 286 285 284 283 285 283 286 286 282 278 274 282 285 289 287 282 277 269 263 264 262 260 262 261 261 267 251 239 245 242 238 229
293 292 292 290 289 287 286 284 281 280 279 280 280 280 277 274 277 279 283 280 276 281 269 260 266 260 250 252 252 256 256 253 254 248 240 237 221 224
290 291 291 290 288 287 285 282 280 278 276 277 276 275 275 274 273 277 275 262 267 274 270 263 259 259 256 258 257 259 262 257 250 250 244 214 206 219
289 290 290 290 289 287 285 282 278 276 274 272 271 271 268 265 270 269 257 257 266 264 267 265 265 265 263 263 265 267 264 258 254 251 244 226 218 221
290 290 291 290 290 287 284 281 277 274 270 269 267 265 263 262 257 254 254 260 267 271 271 269 267 265 263 264 264 266 266 259 247 244 238 229 227 232
291 291 289 289 288 286 282 276 274 272 269 265 262 260 259 248 248 253 260 267 271 270 270 269 266 264 262 261 262 261 260 257 253 243 244 244 227 212
292 293 292 290 287 283 279 271 260 254 255 256 253 244 242 254 262 264 265 267 267 268 269 268 267 266 265 260 257 254 255 254 251 248 244 242 248 251
291 290 290 289 286 281 277 276 266 258 238 234 239 249 257 263 266 270 271 270 273 271 268 269 267 266 263 260 255 254 252 249 249 249 249 246 245 244
292 290 287 284 278 273 268 256 261 241 245 245 252 260 265 268 271 273 274 277 276 275 271 269 266 264 262 259 256 255 258 257 254 251 251 252 253 255
289 287 282 275 266 257 250 244 256 274 277 263 260 261 264 270 275 277 279 278 278 274 271 267 265 264 263 263 262 260 259 260 260 260 259 258 259 259
282 275 268 259 249 242 237 242 248 267 264 259 257 259 272 277 282 281 280 280 277 275 272 269 266 264 264 265 266 265 265 264 264 264 264 263 262 263
276 264 253 244 234 236 252 263 253 246 249 261 267 271 277 280 280 281 283 282 279 276 273 272 269 267 267 267 268 269 270 271 272 270 268 267 267 269
264 252 245 239 236 250 245 248 252 251 253 261 270 274 276 276 279 282 283 284 283 280 276 273 271 270 269 270 272 273 274 276 277 275 273 272 272 271
249 237 233 233 241 241 255 257 255 256 266 271 269 270 274 277 278 281 282 283 281 282 282 279 276 275 275 273 272 274 278 280 281 278 275 274 274 275
240 239 235 236 245 249 252 255 256 259 261 266 270 274 276 278 280 283 287 288 284 274 274 279 278 276 274 274 276 277 281 283 283 280 278 277 277 278
238 238 238 246 250 253 255 258 260 262 265 268 271 273 276 279 280 281 285 278 287 273 274 276 277 276 275 272 273 279 284 288 286 282 281 280 280 280
240 243 246 248 252 255 257 259 262 265 266 268 271 275 278 286 290 290 282 292 279 271 276 277 277 276 275 274 272 273 280 284 282 281 279 279 282 283
243 248 252 255 258 259 260 263 265 266 267 270 283 286 287 288 289 293 289 283 279 272 273 276 277 276 275 275 272 273 280 282 282 279 278 279 280 286
246 248 257 260 261 263 264 265 267 267 271 276 279 280 284 290 294 295 285 281 278 275 275 278 280 279 277 274 273 276 280 279 279 280 282 282 282 279
249 244 248 256 265 269 268 267 268 272 273 278 281 280 280 283 288 286 282 281 276 275 276 278 277 277 279 276 274 274 275 277 280 282 282 285 288 283
260 259 256 256 259 263 266 269 273 269 271 277 281 282 282 284 283 282 284 282 278 277 277 278 277 279 277 277 276 271 273 278 279 280 281 283 284 283
266 264 263 263 264 268 274 275 273 274 277 277 279 281 283 282 281 282 284 283 283 282 282 278 276 278 277 274 276 276 275 276 279 282 284 284 284 284
264 263 263 264 265 268 270 272 273 274 276 279 281 281 281 282 281 283 284 284 283 281 279 277 275 275 275 279 280 281 281 279 278 278 283 286 286 285